Location: Agus-us
(14.2247°N, 120.8593°E)
Time: 17:52:55
(UTC+00:00)

Cosmos 372 Rocket - Pass Details

Date: 13 December 2025
Orbit: 734 x 761 km, 74.1° (Epoch: 20 January)

Event Time Altitude Azimuth Distance (km) Brightness Sun altitude
Exits shadow 21:05:59 23° 311° (NW) 1,527 5.0 -15.7°
Maximum altitude 21:08:31 38° 259° (W) 1,105 4.4 -15.1°
Drops below altitude 10° 21:13:11 10° 191° (SSW) 2,240 6.5 -14.1°
Sets 21:15:41 0° 184° (S) 3,166 7.4 -13.5°
